LEBL Weather Reports


time (UTC)temp
F
wind
direction
speed
knots
gust
knots
rain 1hr
in
rain 24hr
in
rain mn
in
humidity
%
barometer
mb
20260502151504 66 90 0.9 0.0 0.00 0.00 0.00 77 1021.0
20260502123004 66 90 10.4 0.0 0.00 0.00 0.00 77 1022.0
20260502121504 66 90 10.4 0.0 0.00 0.00 0.00 77 1022.0
20260502114504 66 100 10.4 0.0 0.00 0.00 0.00 82 1022.0
20260502111504 66 90 7.8 0.0 0.00 0.00 0.00 72 1023.0
20260502110004 66 60 0.9 0.0 0.00 0.00 0.00 72 1023.0
20260502104504 66 60 0.9 0.0 0.00 0.00 0.00 72 1023.0
20260502101504 66 60 0.9 0.0 0.00 0.00 0.00 72 1023.0
20260502071504 64 70 0.9 0.0 0.00 0.00 0.00 88 1023.0
20260502070004 64 60 7.8 0.0 0.00 0.00 0.00 88 1023.0
20260502061504 64 60 7.8 0.0 0.00 0.00 0.00 88 1023.0
20260502054504 64 70 7.0 0.0 0.00 0.00 0.00 88 1023.0
20260502053005 64 70 6.1 0.0 0.00 0.00 0.00 88 1023.0
20260502050004 64 70 7.0 0.0 0.00 0.00 0.00 88 1023.0
20260502043005 64 70 0.9 0.0 0.00 0.00 0.00 88 1023.0
20260502040005 64 70 0.9 0.0 0.00 0.00 0.00 88 1023.0
20260502034504 64 70 0.9 0.0 0.00 0.00 0.00 88 1023.0
20260502033004 64 70 0.9 0.0 0.00 0.00 0.00 88 1023.0
20260502030004 64 60 7.8 0.0 0.00 0.00 0.00 88 1023.0
20260502024503 64 60 7.8 0.0 0.00 0.00 0.00 88 1023.0
20260502021504 64 60 0.9 0.0 0.00 0.00 0.00 93 1023.0
20260502020004 64 70 0.9 0.0 0.00 0.00 0.00 93 1023.0
20260502014504 64 70 0.9 0.0 0.00 0.00 0.00 93 1023.0
20260502011504 64 70 7.8 0.0 0.00 0.00 0.00 93 1024.0
20260502004504 64 70 7.0 0.0 0.00 0.00 0.00 88 1024.0
20260502003004 64 70 6.1 0.0 0.00 0.00 0.00 88 1024.0
20260502001504 64 70 6.1 0.0 0.00 0.00 0.00 88 1024.0
20260501234504 64 80 6.1 0.0 0.00 0.00 0.00 88 1024.0
20260501220005 64 70 0.9 0.0 0.00 0.00 0.00 88 1024.0
20260501214504 64 70 0.9 0.0 0.00 0.00 0.00 88 1024.0
20260501213004 64 70 0.9 0.0 0.00 0.00 0.00 88 1024.0
20260501204503 64 80 10.4 0.0 0.00 0.00 0.00 88 1024.0
20260501203005 64 90 7.8 0.0 0.00 0.00 0.00 88 1023.0
20260501201504 64 90 7.8 0.0 0.00 0.00 0.00 88 1023.0
20260501194504 64 90 7.8 0.0 0.00 0.00 0.00 88 1023.0
20260501193004 64 80 7.0 0.0 0.00 0.00 0.00 88 1023.0
20260501191503 64 80 7.0 0.0 0.00 0.00 0.00 88 1023.0
20260501184505 64 80 10.4 0.0 0.00 0.00 0.00 88 1023.0
20260501183004 64 70 11.3 0.0 0.00 0.00 0.00 88 1023.0
20260501180004 66 70 11.3 0.0 0.00 0.00 0.00 77 1022.0
20260501174503 66 70 11.3 0.0 0.00 0.00 0.00 77 1022.0
20260501171504 66 70 13.9 0.0 0.00 0.00 0.00 77 1022.0
20260501170004 66 70 13.9 0.0 0.00 0.00 0.00 77 1022.0
20260501164503 66 70 13.9 0.0 0.00 0.00 0.00 77 1022.0
20260501163004 66 70 13.9 0.0 0.00 0.00 0.00 72 1022.0
20260501161503 66 70 13.9 0.0 0.00 0.00 0.00 72 1022.0
20260501160005 68 80 14.8 0.0 0.00 0.00 0.00 68 1022.0